Погода в Москве

Погода в Москве : погода сейчас, прогноз погоды и архив. Всё, что Вы хотите узнать о погоде в Москве!

Хотите узнать прогноз погоды в Москве? Тогда Вам сюда: Погода в Москве

Поиск расширенной информации на нашем сайте:

Другие новости

Новости СМИ2

Главная страница сайта

Новости сайта

03.07.2017

Напоминаем, что на нашем специализированном сайте Метеоцентр.Азия вы можете получить высокодетализированные автоматические прогнозы погоды по пунктам России, СНГ и мира в авиационном формате (включающие направление и скорость ветра, видимость, явления погоды, количество и форму облачности, нижнюю и верхнюю границу облачности).


Погода в Москве - сегодня

Время (UTC), дата Ветер
(°,м/с) 
Видим.   Явления Облачность Т
(°С)
Тd
(°С)
f(%) Тe
(°С)
Pmin
(гПа)
dP
(гПа)
Po
(мм)
O2
(г/м3)
Тmin Tmax R s Состояние
почвы
09 14.10.18 290 (З) 10 км    8/0 верхняя 
[Ci fib]
+15.6 +10.4 71 +19  1026.7  0.1  756  286           
12 14.10.18 310 (СЗ) 10 км    6/0 средняя, верхняя 
[Ac trans|Ci fib]
+17.6 +9.9 61 +20  1025.9  -0.7  755  284           
15 14.10.18 310 (СЗ) 10 км    8/0 средняя, верхняя 
[Ac trans|Ci sp]
+16.5 +9.4 63 +18  1025.9  -0.1  755  285           
21 14.10.18 тихо ()   н/о  дымка  4/0 верхняя 
[Ci fib]
+12.4 +10.2 86 +14  1026.8  0.3  756  289           
03 15.10.18 тихо ()   н/о  дымка  3/0 верхняя 
[Ci fib]
+8.8 +8.5 98 +9  1027.6  756  294  +8.8         
09 15.10.18 270 (З) 10 км    ясно 
+16 +10 68 +18  1028  0.5  757  286           
12 15.10.18 300 (СЗ) 10 км    ясно 
+17.9 +8.2 53 +19  1027.4  -0.5  756  285           
15 15.10.18 тихо ()   10 км    ясно 
+12.7 +8.5 76 +13  1027.3  -0.4  756  290           
21 15.10.18 тихо ()   н/о  дымка  ясно 
+9 +7.8 92 +9  1027.4  756  294           
00 16.10.18 тихо ()   н/о  дымка  ясно 
+7.2 +6.8 97 +7  1027.7  0.2  756  296           
06 16.10.18 250 (З) 4000 м  дымка  10/0 верхняя 
[Ci fib]
+8.8 +7.3 90 +10  1027  -0.2  756  294  +5.7        влажная 
09 16.10.18 260 (З) 10 км    8/0 верхняя 
[Ci fib]
+14.8 +5.1 52 +16  1026.3  -0.3  755  288           
12 16.10.18 260 (З) 10 км    3/0 верхняя 
[Ci fib]
+16.3 +3.5 42 +18  1025  -1.2  755  286           
15 16.10.18 250 (З) 10 км    3/0 верхняя 
[Ci fib]
+14.2 +4 50 +15  1024.2  -0.9  754  288           
21 16.10.18 тихо ()   н/о    ясно 
+10.8 +4.6 65 +11  1024.2  0.1  754  291           
00 17.10.18 тихо ()   н/о    ясно 
+8.5 +4.8 78 +9  1024.5  0.4  754  294           
09 17.10.18 260 (З) 10 км    ясно 
+15.1 +5.6 53 +16  1026  755  288           
12 17.10.18 тихо ()   10 км    ясно 
+15.9 +6.4 53 +16  1025.7  -0.3  755  286           
15 17.10.18 тихо ()   10 км    ясно 
+11 +7.4 78 +11  1025.9  -0.2  755  291           
21 17.10.18 тихо ()   н/о  дымка  ясно 
+6 +5.7 98 +6  1026.3  755  297           
00 18.10.18 тихо ()   н/о  дымка  ясно 
+5.1 +4.9 99 +5  1025.6  -0.7  755  298           
09 18.10.18 290 (З) 10 км    ясно 
+16.8 +7.8 55 +18  1022.7  -0.8  753  285           
12 18.10.18 260 (З) 10 км    ясно 
+17.7 +7.1 50 +19  1021  -1.6  752  283           
15 18.10.18 тихо ()   н/о    3/0 верхняя 
[Ci fib]
+13.1 +8.1 72 +13  1020.3  -1  751  287           
21 18.10.18 290 (З) н/о    ясно 
+13.1 +8.3 73 +14  1018.9  -0.5  750  287           
Время (UTC), дата Ветер
(°,м/с) 
Видим.   Явления Облачность Т
(°С)
Тd
(°С)
f(%) Тe
(°С)
Pmin
(гПа)
dP
(гПа)
Po
(мм)
O2
(г/м3)
Тmin Tmax R s Состояние
почвы

Для получения пояснительной информации подведите курсор к названию столбца.

ПОГОДА в Москве - архив

Всё, что Вы хотите узнать о погоде в Москве - удобно и подробно!

Выберите нужную дату (начиная с 1 января 2015* года) и нажмите кнопку "Найти".
Будут отображены архивные сводки погоды по пункту Москва, начиная с указанной даты.


Отображать данные в формате CSV (для использования в таблицах Excel)


Внимание! Наш архив погоды предназначен исключительно для личного некоммерческого использования в познавательных целях. Если Вам необходимы официальные справки о состоянии погоды (для производственных, юридических, коммерческих и т.п. целей), обращайтесь в органы Росгидромета.

*Примечание: данная дата относится к архиву по метеостанциям СССР (Россия, СНГ, Балтия).
Архив по метеостанциям Зарубежной Европы и Азии (кроме Китая) хранится 10 дней, по другим регионам земного шара (Китай, Африка, Америка, Австралия, Океания) - 1 день.

Москва - район местоположения метеостанции


Название, широта, долгота, высота метеостанции:
Москва (ВВЦ) 55.8°ш. 37.6°д. 156 м над ур. моря [Российская Федерация]

Дополнительная информация

В oтличие oт бoльшинства пoгoдных сайтoв мы публикуем пoдрoбную метеoинфoрмацию в детальнoм прoфессиoнальнoм фoрмате.

Характеристики температуры и влажнoсти вoздуха измеряются на высoте 2 м в тени вдали oт зданий и деревьев.
Скoрoсть ветра измеряется на высoте 10 м (на урoвне рoста челoвека скoрoсть ветра ниже в 1.5-2 раза). Если метеoстанция нахoдится в гoрoде или в лесу, тo скoрoсть ветра занижена на 2-4 м/с пo сравнению с oткрытым местoм. Скoрoсть ветра над акватoриями крупных рек и oзёр, а также на вершинах хoлмoв на 2-5 м/с выше, чем в oбычных услoвиях.
Атмoсфернoе давление в разных тoчках местнoсти мoжет значительнo oтличаться oт давления на метеoстанции, в зависимoсти oт услoвий рельефа (при пoдъёме на 10 м давление пoнижается примернo на 1 мм рт.ст.).